Flag for Australia Weather past 2 weeks in Traralgon, Victoria, Australia

Now
67 °F

Mild.


Feels Like: 67 °F
Forecast: 46 / 76 °F
Wind: 15 mph from Southwest

Location: Latrobe Valley Airport

Current Time: Dec 19, 2014 at 3:03:59 PM

Latest Report: Dec 19, 2014 at 1:00 PM


Visibility: N/A

Pressure: 30.01 "Hg

Humidity: 42%

Dew point: 43 °F

Location of TraralgonLocation

Historic Weather in Traralgon — Graph

°F

Traralgon temperature yesterday

Maximum temperature yesterday: 77 °F (at 1:00 PM)
Minimum temperature yesterday: 47 °F (at 6:00 AM)
Average temperature yesterday: 60 °F

Past Weeks' High & Low Weather Summary

 TemperatureHumidityPressure
High92 °F (Dec 16, 4:00 PM)100% (Dec 5, 9:00 AM)30.19 "Hg (Dec 5, 9:00 AM)
Low47 °F (Dec 18, 6:00 AM)15% (Dec 16, 4:00 PM)29.21 "Hg (Dec 16, 4:00 PM)
Average63 °F81%29.83 "Hg
* Reported Dec 4 1:00 PM — Dec 19 1:00 PM, Traralgon, Weather by CustomWeather, © 2014

Note: Actual official high and low records may vary slightly from our data, if they occured in-between our weather recording intervals... More about our weather records

Advertising

Traralgon weather history for previous 24 hours

 ConditionsComfort  
Time TempWeatherWind HumidityBarometerVisibility
1:00 PM
Dec 19
67 °FMild.15 mph42%30.01 "HgN/A
12:00 PM65 °FPartly sunny.14 mph50%30.01 "HgN/A
10:00 AM62 °FMild.14 mph54%29.98 "HgN/A
9:00 AM57 °FPartly sunny.12 mph85%29.99 "HgN/A
7:00 AM53 °FCool.10 mph97%29.95 "HgN/A
6:00 AM50 °FScattered clouds.3 mph99%29.94 "HgN/A
4:00 AM52 °FCool.10 mph94%29.90 "HgN/A
3:00 AM53 °FPassing clouds.8 mph96%29.89 "HgN/A
1:00 AM54 °FCool.12 mph93%29.89 "HgN/A
12:00 AM54 °FPassing clouds.12 mph94%29.89 "HgN/A
10:00 PM
Dec 18
55 °FCool.10 mph95%29.86 "HgN/A
9:00 PM55 °FCool.14 mph94%29.84 "HgN/A
7:00 PM56 °FCool.14 mph94%29.81 "HgN/A
6:00 PM59 °FOvercast.23 mph85%29.76 "Hg3 mi
4:00 PM71 °FMild.14 mph44%29.67 "HgN/A
3:00 PM73 °FScattered clouds.18 mph39%29.67 "HgN/A
Weather by CustomWeather, © 2014

See weather overviewHow to use our weather pages